GW1851 Weather Reports


Display with metric or nautical units.
time (UTC)temp
F
wind
direction
speed
MPH
gust
MPH
rain 1hr
in
rain 24hr
in
rain mn
in
humidity
%
barometer
mb
20260901005836 84 217 0.0 0.0 0.00 0.00 0.00 80 1014.0
20260901005331 84 217 0.0 0.0 0.00 0.00 0.00 81 1013.9
20260901004826 84 216 0.0 0.0 0.00 0.00 0.00 82 1014.0
20260901004320 85 216 0.0 0.0 0.00 0.00 0.00 82 1014.0
20260901003814 85 216 0.0 0.0 0.00 0.00 0.00 82 1014.0
20260901003310 85 216 0.0 0.0 0.00 0.00 0.00 81 1013.9
20260901002808 86 216 0.0 0.0 0.00 0.00 0.00 82 1013.9
20260901002305 87 215 0.0 0.0 0.00 0.00 0.00 80 1014.0
20260901001758 88 216 0.0 0.0 0.00 0.00 0.00 76 1013.7
20260901001253 89 215 0.0 0.0 0.00 0.00 0.00 71 1013.8
20260901000743 89 215 0.0 0.0 0.00 0.00 0.00 70 1013.8
20260901000241 89 216 0.0 1.0 0.00 0.00 0.00 70 1013.5
20260831235737 89 217 0.0 0.0 0.00 0.00 0.00 72 1013.5
20260831235233 89 217 0.0 0.0 0.00 0.00 0.00 74 1013.7
20260831234733 89 217 0.0 0.0 0.00 0.00 0.00 76 1013.5
20260831234233 89 217 0.0 0.0 0.00 0.00 0.00 75 1013.7
20260831233728 89 217 0.0 0.0 0.00 0.00 0.00 74 1013.6
20260831233224 91 217 0.0 0.0 0.00 0.00 0.00 72 1013.7
20260831232724 91 217 0.0 0.0 0.00 0.00 0.00 69 1013.5
20260831232220 91 221 0.0 0.0 0.00 0.00 0.00 68 1013.5
20260831231716 91 221 0.0 0.0 0.00 0.00 0.00 68 1013.4
20260831231212 92 219 0.0 1.0 0.00 0.00 0.00 66 1013.6
20260831230712 92 219 0.0 1.0 0.00 0.00 0.00 65 1013.5
20260831230207 92 218 0.0 1.0 0.00 0.00 0.00 66 1013.7
20260831225706 92 217 0.0 0.0 0.00 0.00 0.00 65 1013.5
20260831225202 93 222 0.0 0.0 0.00 0.00 0.00 64 1013.4
20260831224656 93 221 1.0 1.0 0.00 0.00 0.00 63 1013.7
20260831224152 93 218 0.0 1.0 0.00 0.00 0.00 63 1013.5
20260831223647 93 222 1.0 1.0 0.00 0.00 0.00 62 1013.6
20260831223144 94 220 1.0 1.0 0.00 0.00 0.00 62 1013.8
20260831222639 94 220 1.0 1.0 0.00 0.00 0.00 61 1013.6
20260831222135 94 223 1.0 1.0 0.00 0.00 0.00 59 1013.7
20260831221630 94 220 1.0 1.0 0.00 0.00 0.00 59 1013.8
20260831221125 94 223 1.0 2.0 0.00 0.00 0.00 58 1013.5
20260831220621 94 223 1.0 2.0 0.00 0.00 0.00 57 1013.5
20260831220115 94 223 1.0 1.0 0.00 0.00 0.00 61 1013.6
20260831215611 94 220 0.0 0.0 0.00 0.00 0.00 60 1013.7
20260831215106 94 213 0.0 0.0 0.00 0.00 0.00 59 1013.5
20260831214604 94 218 0.0 1.0 0.00 0.00 0.00 57 1013.7
20260831214100 95 223 2.0 2.0 0.00 0.00 0.00 58 1013.5
20260831213556 95 224 1.0 1.0 0.00 0.00 0.00 57 1013.2
20260831213051 95 231 1.0 2.0 0.00 0.00 0.00 55 1013.4
20260831212542 95 197 1.0 1.0 0.00 0.00 0.00 55 1013.3
20260831212037 95 231 2.0 3.0 0.00 0.00 0.00 55 1013.5
20260831211531 95 234 1.0 2.0 0.00 0.00 0.00 54 1013.5
20260831211030 95 212 0.0 1.0 0.00 0.00 0.00 54 1013.3
20260831210526 95 216 1.0 2.0 0.00 0.00 0.00 55 1013.5
20260831210022 96 229 2.0 3.0 0.00 0.00 0.00 52 1013.7
20260831205516 95 234 2.0 2.0 0.00 0.00 0.00 54 1013.7
20260831205012 96 214 1.0 2.0 0.00 0.00 0.00 53 1013.7
20260831204507 96 214 0.0 1.0 0.00 0.00 0.00 52 1013.7
20260831204005 97 222 1.0 2.0 0.00 0.00 0.00 56 1013.7
20260831203505 97 218 0.0 1.0 0.00 0.00 0.00 53 1013.9
20260831203004 97 209 3.0 3.0 0.00 0.00 0.00 52 1013.9
20260831202458 97 176 1.0 2.0 0.00 0.00 0.00 53 1013.6
20260831201958 96 223 2.0 2.0 0.00 0.00 0.00 55 1013.5
20260831201456 96 230 1.0 2.0 0.00 0.00 0.00 54 1013.6
20260831200952 95 213 1.0 1.0 0.00 0.00 0.00 56 1013.6
20260831200448 96 218 1.0 1.0 0.00 0.00 0.00 54 1013.7
20260831195942 96 237 1.0 2.0 0.00 0.00 0.00 53 1013.9
20260831195438 96 226 3.0 3.0 0.00 0.00 0.00 53 1013.9
20260831194932 97 206 3.0 5.0 0.00 0.00 0.00 53 1014.0
20260831194428 97 252 3.0 3.0 0.00 0.00 0.00 53 1013.9
20260831193927 96 225 1.0 2.0 0.00 0.00 0.00 54 1014.1
20260831193423 96 241 1.0 2.0 0.00 0.00 0.00 56 1014.1
20260831192918 97 240 1.0 2.0 0.00 0.00 0.00 54 1013.9
20260831192413 96 178 1.0 2.0 0.00 0.00 0.00 55 1013.9
20260831191908 96 235 3.0 5.0 0.00 0.00 0.00 56 1014.0
20260831191404 96 241 1.0 1.0 0.00 0.00 0.00 56 1014.2
20260831190900 96 205 1.0 2.0 0.00 0.00 0.00 54 1014.3
20260831190400 96 218 1.0 1.0 0.00 0.00 0.00 52 1014.4
20260831185900 95 130 2.0 2.0 0.00 0.00 0.00 52 1014.5
20260831185355 96 233 1.0 2.0 0.00 0.00 0.00 54 1014.4
20260831184854 96 214 3.0 3.0 0.00 0.00 0.00 52 1014.5
20260831184349 95 218 1.0 2.0 0.00 0.00 0.00 59 1014.4
20260831183845 95 217 0.0 0.0 0.00 0.00 0.00 58 1014.6
20260831183344 94 228 3.0 5.0 0.00 0.00 0.00 55 1014.7
20260831182844 95 235 1.0 2.0 0.00 0.00 0.00 55 1014.7
20260831182339 94 223 1.0 2.0 0.00 0.00 0.00 56 1014.7
20260831181834 94 219 1.0 1.0 0.00 0.00 0.00 56 1014.7
20260831181330 93 230 1.0 2.0 0.00 0.00 0.00 55 1015.0
20260831180824 94 225 2.0 2.0 0.00 0.00 0.00 59 1014.6
20260831180319 94 257 2.0 3.0 0.00 0.00 0.00 55 1015.0
20260831175818 93 247 2.0 2.0 0.00 0.00 0.00 57 1015.1
20260831175315 93 243 3.0 3.0 0.00 0.00 0.00 60 1014.8
20260831174810 93 215 2.0 3.0 0.00 0.00 0.00 57 1015.1
20260831174306 93 192 1.0 2.0 0.00 0.00 0.00 57 1015.1
20260831173805 92 216 1.0 2.0 0.00 0.00 0.00 60 1015.4
20260831173259 92 220 3.0 5.0 0.00 0.00 0.00 56 1015.3
20260831172754 92 169 2.0 2.0 0.00 0.00 0.00 58 1015.4
20260831172249 92 225 1.0 1.0 0.00 0.00 0.00 59 1015.2
20260831171743 91 213 1.0 1.0 0.00 0.00 0.00 60 1015.5
20260831171241 91 218 2.0 2.0 0.00 0.00 0.00 58 1015.4
20260831170737 91 229 1.0 1.0 0.00 0.00 0.00 59 1015.3
20260831170233 91 216 1.0 2.0 0.00 0.00 0.00 61 1015.5
20260831165730 91 209 1.0 1.0 0.00 0.00 0.00 60 1015.7
20260831165226 90 227 1.0 2.0 0.00 0.00 0.00 61 1015.8
20260831164721 91 109 2.0 3.0 0.00 0.00 0.00 58 1015.6
20260831164218 90 222 2.0 3.0 0.00 0.00 0.00 62 1015.5
20260831163712 90 214 0.0 1.0 0.00 0.00 0.00 62 1015.7
20260831163208 89 211 0.0 1.0 0.00 0.00 0.00 61 1015.6
20260831162707 89 213 1.0 1.0 0.00 0.00 0.00 63 1015.7
20260831162206 89 232 2.0 2.0 0.00 0.00 0.00 62 1015.5
20260831161701 88 204 1.0 1.0 0.00 0.00 0.00 62 1015.7
20260831161157 88 210 1.0 2.0 0.00 0.00 0.00 62 1015.7
20260831160656 88 198 3.0 5.0 0.00 0.00 0.00 60 1015.5
20260831160152 87 239 2.0 2.0 0.00 0.00 0.00 64 1015.8
20260831155651 88 152 3.0 3.0 0.00 0.00 0.00 61 1015.7
20260831155147 87 214 0.0 1.0 0.00 0.00 0.00 64 1015.9
20260831154643 87 247 1.0 1.0 0.00 0.00 0.00 64 1015.9
20260831154138 87 213 2.0 2.0 0.00 0.00 0.00 62 1016.0
20260831153637 86 220 0.0 1.0 0.00 0.00 0.00 62 1015.7
20260831153134 86 210 1.0 1.0 0.00 0.00 0.00 63 1015.8
20260831152629 86 214 2.0 5.0 0.00 0.00 0.00 63 1015.7
20260831152125 86 175 4.0 5.0 0.00 0.00 0.00 62 1015.6
20260831151624 85 192 1.0 1.0 0.00 0.00 0.00 64 1015.6
20260831151119 85 228 1.0 1.0 0.00 0.00 0.00 64 1015.8
20260831150614 84 218 2.0 2.0 0.00 0.00 0.00 65 1015.8
20260831150110 84 222 2.0 3.0 0.00 0.00 0.00 66 1015.9
20260831145604 84 224 0.0 0.0 0.00 0.00 0.00 67 1015.7
20260831145100 84 208 2.0 3.0 0.00 0.00 0.00 66 1015.8
20260831144555 82 195 1.0 2.0 0.00 0.00 0.00 67 1015.8
20260831144051 81 215 1.0 1.0 0.00 0.00 0.00 69 1015.8
20260831143545 80 222 0.0 1.0 0.00 0.00 0.00 72 1015.5
20260831143041 80 213 0.0 1.0 0.00 0.00 0.00 71 1015.7
20260831142537 81 211 2.0 3.0 0.00 0.00 0.00 70 1015.8
20260831142032 82 214 1.0 1.0 0.00 0.00 0.00 70 1015.9
20260831141531 82 213 1.0 1.0 0.00 0.00 0.00 67 1015.9
20260831141026 81 181 1.0 2.0 0.00 0.00 0.00 70 1015.9
20260831140526 81 222 1.0 2.0 0.00 0.00 0.00 69 1015.7
20260831140026 80 210 1.0 1.0 0.00 0.00 0.00 69 1015.7
20260831135524 80 178 1.0 2.0 0.00 0.00 0.00 69 1015.8
20260831135019 80 224 2.0 2.0 0.00 0.00 0.00 70 1016.1
20260831134515 78 213 0.0 0.0 0.00 0.00 0.00 73 1015.9
20260831134015 77 213 1.0 1.0 0.00 0.00 0.00 74 1015.8
20260831133510 77 219 0.0 0.0 0.00 0.00 0.00 75 1015.9
20260831133005 77 217 1.0 1.0 0.00 0.00 0.00 77 1016.0
20260831132501 76 215 1.0 1.0 0.00 0.00 0.00 76 1015.9
20260831131959 76 210 0.0 1.0 0.00 0.00 0.00 76 1015.9
20260831131454 76 231 2.0 2.0 0.00 0.00 0.00 75 1015.8
20260831130950 76 212 1.0 1.0 0.00 0.00 0.00 76 1015.6
20260831130445 75 213 0.0 0.0 0.00 0.00 0.00 77 1015.6
20260831125944 75 220 1.0 1.0 0.00 0.00 0.00 78 1015.6
20260831125439 74 208 0.0 0.0 0.00 0.00 0.00 79 1015.8
20260831124935 73 212 0.0 0.0 0.00 0.00 0.00 79 1015.6
20260831124431 73 217 0.0 1.0 0.00 0.00 0.00 79 1015.8
20260831123927 73 219 0.0 1.0 0.00 0.00 0.00 80 1015.5
20260831123425 73 214 1.0 1.0 0.00 0.00 0.00 80 1015.7
20260831122920 72 217 0.0 1.0 0.00 0.00 0.00 80 1015.5
20260831122415 72 213 0.0 0.0 0.00 0.00 0.00 81 1015.4
20260831121910 72 215 0.0 0.0 0.00 0.00 0.00 81 1015.4
20260831121406 72 213 0.0 0.0 0.00 0.00 0.00 82 1015.4
20260831120901 72 212 0.0 0.0 0.00 0.00 0.00 81 1015.4
20260831120356 71 214 0.0 0.0 0.00 0.00 0.00 81 1015.4
20260831115851 71 209 0.0 0.0 0.00 0.00 0.00 82 1015.4
20260831115347 72 213 0.0 0.0 0.00 0.00 0.00 80 1015.4
20260831114846 72 209 0.0 0.0 0.00 0.00 0.00 80 1015.4
20260831114346 72 214 0.0 0.0 0.00 0.00 0.00 80 1015.4
20260831113841 72 207 0.0 0.0 0.00 0.00 0.00 80 1015.3
20260831113341 72 209 0.0 0.0 0.00 0.00 0.00 80 1015.4
20260831112836 72 209 0.0 0.0 0.00 0.00 0.00 80 1015.1
20260831112331 72 213 0.0 0.0 0.00 0.00 0.00 80 1015.2
20260831111826 72 201 0.0 0.0 0.00 0.00 0.00 80 1015.1
20260831111322 72 215 0.0 0.0 0.00 0.00 0.00 80 1015.1
20260831110818 72 211 0.0 0.0 0.00 0.00 0.00 79 1015.2
20260831110312 72 211 0.0 0.0 0.00 0.00 0.00 79 1015.3
20260831105811 72 216 0.0 0.0 0.00 0.00 0.00 79 1015.3
20260831105307 72 216 0.0 0.0 0.00 0.00 0.00 79 1014.8
20260831104807 72 214 0.0 0.0 0.00 0.00 0.00 80 1015.0
20260831104303 72 219 0.0 0.0 0.00 0.00 0.00 80 1014.8
20260831103758 73 214 0.0 0.0 0.00 0.00 0.00 78 1014.8
20260831103253 73 212 1.0 1.0 0.00 0.00 0.00 77 1014.8
20260831102753 73 214 0.0 0.0 0.00 0.00 0.00 77 1014.6
20260831102248 73 211 0.0 0.0 0.00 0.00 0.00 78 1014.8
20260831101744 73 217 1.0 1.0 0.00 0.00 0.00 78 1014.8
20260831101239 73 216 0.0 0.0 0.00 0.00 0.00 79 1014.7
20260831100735 72 218 0.0 0.0 0.00 0.00 0.00 79 1015.1
20260831100231 73 213 0.0 0.0 0.00 0.00 0.00 80 1014.8
20260831095729 72 219 0.0 0.0 0.00 0.00 0.00 79 1014.7
20260831095224 72 213 0.0 0.0 0.00 0.00 0.00 80 1014.8
20260831094719 73 214 0.0 0.0 0.00 0.00 0.00 80 1015.0
20260831094216 73 215 0.0 0.0 0.00 0.00 0.00 79 1014.8
20260831093711 73 200 1.0 1.0 0.00 0.00 0.00 78 1014.7
20260831093206 73 211 0.0 0.0 0.00 0.00 0.00 78 1014.6
20260831092703 73 212 0.0 0.0 0.00 0.00 0.00 78 1014.8
20260831092158 73 210 0.0 1.0 0.00 0.00 0.00 78 1014.7
20260831091657 73 217 0.0 1.0 0.00 0.00 0.00 80 1014.6
20260831091154 73 211 0.0 0.0 0.00 0.00 0.00 80 1014.6
20260831090653 72 206 1.0 1.0 0.00 0.00 0.00 81 1014.7
20260831090149 73 214 0.0 0.0 0.00 0.00 0.00 81 1014.8
20260831085645 72 209 0.0 0.0 0.00 0.00 0.00 81 1014.6
20260831085140 73 214 0.0 0.0 0.00 0.00 0.00 81 1014.7
20260831084636 73 212 0.0 0.0 0.00 0.00 0.00 81 1014.7
20260831084132 73 212 0.0 0.0 0.00 0.00 0.00 81 1014.6
20260831083628 73 203 1.0 1.0 0.00 0.00 0.00 81 1014.8
20260831083123 73 211 1.0 1.0 0.00 0.00 0.00 81 1014.7
20260831082621 73 209 1.0 1.0 0.00 0.00 0.00 81 1014.6
20260831082117 73 192 1.0 2.0 0.00 0.00 0.00 80 1014.4
20260831081612 73 209 0.0 1.0 0.00 0.00 0.00 81 1014.4
20260831081108 73 211 0.0 0.0 0.00 0.00 0.00 81 1014.3
20260831080603 73 218 0.0 0.0 0.00 0.00 0.00 81 1014.5
20260831080058 73 221 0.0 1.0 0.00 0.00 0.00 80 1014.3
20260831075554 73 210 1.0 1.0 0.00 0.00 0.00 80 1014.5
20260831075049 73 211 1.0 1.0 0.00 0.00 0.00 80 1014.6
20260831074548 74 210 0.0 0.0 0.00 0.00 0.00 80 1014.5
20260831074043 74 220 1.0 1.0 0.00 0.00 0.00 80 1014.5
20260831073538 74 218 0.0 1.0 0.00 0.00 0.00 79 1014.7
20260831073037 74 219 1.0 2.0 0.00 0.00 0.00 79 1014.8
20260831072533 74 214 0.0 1.0 0.00 0.00 0.00 79 1015.0
20260831072030 74 208 0.0 0.0 0.00 0.00 0.00 79 1014.8
20260831071528 74 215 1.0 1.0 0.00 0.00 0.00 78 1014.8
20260831071023 74 205 1.0 1.0 0.00 0.00 0.00 78 1015.0
20260831070522 74 214 1.0 1.0 0.00 0.00 0.00 78 1015.0
20260831070017 74 222 1.0 1.0 0.00 0.00 0.00 78 1015.0
20260831065515 74 214 0.0 0.0 0.00 0.00 0.00 78 1014.8
20260831065009 75 218 0.0 1.0 0.00 0.00 0.00 78 1015.1
20260831064504 75 212 1.0 1.0 0.00 0.00 0.00 77 1015.2
20260831064000 75 217 0.0 0.0 0.00 0.00 0.00 77 1015.0
20260831063456 75 221 0.0 0.0 0.00 0.00 0.00 77 1015.1
20260831062954 75 207 0.0 1.0 0.00 0.00 0.00 77 1015.2
20260831062451 75 211 1.0 1.0 0.00 0.00 0.00 77 1015.3
20260831061950 75 218 0.0 1.0 0.00 0.00 0.00 76 1014.8
20260831061448 75 204 1.0 1.0 0.00 0.00 0.00 76 1015.3
20260831060945 76 192 0.0 1.0 0.00 0.00 0.00 76 1015.1
20260831060439 76 215 1.0 1.0 0.00 0.00 0.00 75 1015.1
20260831055939 76 179 1.0 1.0 0.00 0.00 0.00 76 1015.2
20260831055434 76 217 0.0 0.0 0.00 0.00 0.00 76 1015.2
20260831054929 76 219 1.0 1.0 0.00 0.00 0.00 76 1015.1
20260831054424 76 219 1.0 2.0 0.00 0.00 0.00 76 1015.1
20260831053923 76 217 1.0 1.0 0.00 0.00 0.00 75 1015.2
20260831053421 76 204 1.0 1.0 0.00 0.00 0.00 75 1015.3
20260831052917 76 235 1.0 1.0 0.00 0.00 0.00 74 1014.8
20260831052416 77 203 1.0 2.0 0.00 0.00 0.00 74 1015.1
20260831051914 77 228 1.0 2.0 0.00 0.00 0.00 73 1015.0
20260831051413 77 224 1.0 1.0 0.00 0.00 0.00 73 1015.1
20260831050908 77 241 1.0 2.0 0.00 0.00 0.00 73 1015.3
20260831050402 77 227 1.0 1.0 0.00 0.00 0.00 73 1015.2
20260831045856 77 217 1.0 2.0 0.00 0.00 0.00 73 1015.1
20260831045355 77 221 0.0 0.0 0.00 0.00 0.00 73 1015.1
20260831044850 77 213 0.0 1.0 0.00 0.00 0.00 73 1015.1
20260831044350 77 211 0.0 1.0 0.00 0.00 0.00 73 1015.1
20260831043847 77 230 2.0 2.0 0.00 0.00 0.00 73 1015.2
20260831043346 77 225 1.0 2.0 0.00 0.00 0.00 73 1015.4
20260831042841 77 213 0.0 1.0 0.00 0.00 0.00 72 1015.3
20260831042340 77 209 0.0 1.0 0.00 0.00 0.00 72 1015.3
20260831041836 77 223 2.0 5.0 0.00 0.00 0.00 72 1015.3
20260831041335 77 212 0.0 1.0 0.00 0.00 0.00 73 1015.4
20260831040830 77 197 0.0 1.0 0.00 0.00 0.00 74 1015.3
20260831040330 77 212 0.0 0.0 0.00 0.00 0.00 73 1015.4
20260831035828 77 212 0.0 0.0 0.00 0.00 0.00 73 1015.4
20260831035327 77 212 0.0 0.0 0.00 0.00 0.00 73 1015.3
20260831034822 77 220 0.0 0.0 0.00 0.00 0.00 72 1015.4
20260831034318 78 218 0.0 0.0 0.00 0.00 0.00 73 1015.3
20260831033813 78 213 0.0 1.0 0.00 0.00 0.00 72 1015.6
20260831033313 78 217 0.0 1.0 0.00 0.00 0.00 72 1015.3
20260831032808 78 217 1.0 1.0 0.00 0.00 0.00 71 1015.3
20260831032306 78 222 0.0 1.0 0.00 0.00 0.00 71 1015.5
20260831031758 78 204 0.0 1.0 0.00 0.00 0.00 71 1015.3
20260831031257 78 221 0.0 1.0 0.00 0.00 0.00 72 1015.2
20260831030752 79 213 1.0 1.0 0.00 0.00 0.00 71 1015.2
20260831030250 79 235 2.0 3.0 0.00 0.00 0.00 72 1015.5
20260831025749 79 199 1.0 1.0 0.00 0.00 0.00 72 1015.2
20260831025244 79 208 0.0 0.0 0.00 0.00 0.00 72 1015.1
20260831024740 79 202 2.0 2.0 0.00 0.00 0.00 73 1015.1
20260831024239 79 221 1.0 1.0 0.00 0.00 0.00 73 1015.2
20260831023738 79 213 0.0 0.0 0.00 0.00 0.00 74 1015.0
20260831023237 79 215 0.0 0.0 0.00 0.00 0.00 74 1015.1
20260831022732 79 213 0.0 0.0 0.00 0.00 0.00 75 1015.3
20260831022226 78 215 0.0 0.0 0.00 0.00 0.00 76 1015.1
20260831021721 77 210 0.0 0.0 0.00 0.00 0.00 79 1015.2
20260831021220 77 210 0.0 0.0 0.00 0.00 0.00 83 1015.1
20260831020717 78 210 0.0 0.0 0.00 0.00 0.00 83 1015.3
20260831020216 78 210 0.0 0.0 0.00 0.00 0.00 82 1015.1
20260831015712 78 210 0.0 0.0 0.00 0.00 0.00 81 1015.0
20260831015207 78 210 0.0 0.0 0.00 0.00 0.00 79 1015.0
20260831014702 79 210 0.0 0.0 0.00 0.00 0.00 79 1015.0
20260831014156 79 210 0.0 0.0 0.00 0.00 0.00 78 1015.0
20260831013653 79 209 0.0 0.0 0.00 0.00 0.00 79 1015.0
20260831013152 79 210 0.0 0.0 0.00 0.00 0.00 78 1014.8
20260831012647 79 209 0.0 0.0 0.00 0.00 0.00 78 1015.0
20260831012143 79 207 0.0 0.0 0.00 0.00 0.00 81 1014.7
20260831011642 79 207 0.0 0.0 0.00 0.00 0.00 81 1014.6
20260831011137 79 206 0.0 0.0 0.00 0.00 0.00 82 1014.5
20260831010633 79 206 0.0 0.0 0.00 0.00 0.00 83 1014.4